Home > Weather > Luxembourg > Past weeks

Flag for Luxembourg Weather for the Past 2 Weeks in Luxembourg, Luxembourg

Now
43 °F

Drizzle. Partly sunny.


Feels Like: 38 °F
Forecast: 42 / 47 °F
Wind: 8 mph from Southwest

Location: Luxembourg Airport

Current Time: Feb 7, 2016 at 10:27:19 AM

Latest Report: Feb 7, 2016 at 9:50 AM


Visibility: 6 mi

Pressure: 29.56 "Hg

Humidity: 93%

Dew point: 41 °F

Location of LuxembourgLocation

Historic Weather in Luxembourg — Graph

°F

Luxembourg Temperature Yesterday

Maximum temperature yesterday: 52 °F (at 2:20 PM)
Minimum temperature yesterday: 39 °F (at 3:50 AM)
Average temperature yesterday: 45 °F

High & Low Weather Summary for the Past Weeks

 TemperatureHumidityPressure
High52 °F (Jan 27, 2:50 PM)100% (Jan 23, 8:20 AM)30.57 "Hg (Jan 23, 8:20 AM)
Low32 °F (Jan 29, 5:50 AM)57% (Feb 3, 4:20 PM)29.53 "Hg (Feb 7, 3:50 AM)
Average43 °F89%30.18 "Hg
* Reported Jan 23 8:20 AM — Feb 7 8:50 AM, Luxembourg, Weather by CustomWeather, © 2016

Note: Actual official high and low records may vary slightly from our data, if they occured in-between our weather recording intervals... More about our weather records

Advertising

Luxembourg Weather History for the Previous 24 Hours

 ConditionsComfort  
Time TempWeatherWind HumidityBarometerVisibility
8:50 AM
Sun, Feb 7
45 °FPartly sunny.14 mph87%29.56 "HgN/A
8:20 AM45 °FLight rain. Broken clouds.14 mph93%29.53 "HgN/A
7:50 AM46 °FLight rain. Passing clouds.17 mph87%29.53 "HgN/A
7:20 AM46 °FRain. Partly cloudy.16 mph87%29.53 "HgN/A
6:50 AM46 °FLight rain. Passing clouds.12 mph87%29.53 "HgN/A
6:20 AM48 °FLight rain. Passing clouds.14 mph82%29.53 "HgN/A
5:50 AM48 °FLight rain. Passing clouds.15 mph82%29.53 "HgN/A
5:20 AM50 °FLight rain. Passing clouds.16 mph71%29.53 "HgN/A
4:50 AM50 °FPassing clouds.14 mph67%29.53 "HgN/A
4:20 AM48 °FPassing clouds.13 mph71%29.53 "HgN/A
3:50 AM48 °FPassing clouds.12 mph66%29.53 "HgN/A
3:20 AM48 °FCool.13 mph66%29.56 "HgN/A
2:50 AM48 °FCool.15 mph66%29.56 "HgN/A
2:20 AM48 °FCool.13 mph66%29.59 "HgN/A
1:50 AM46 °FCool.10 mph71%29.59 "HgN/A
1:20 AM48 °FCool.10 mph66%29.62 "HgN/A
12:50 AM48 °FPassing clouds.12 mph71%29.62 "HgN/A
11:50 PM
Sat, Feb 6
48 °FPassing clouds.12 mph71%29.65 "HgN/A
11:20 PM46 °FPassing clouds.12 mph76%29.65 "HgN/A
10:50 PM46 °FPassing clouds.12 mph76%29.65 "HgN/A
9:50 PM48 °FPassing clouds.14 mph71%29.68 "HgN/A
9:20 PM48 °FPassing clouds.13 mph71%29.68 "HgN/A
8:50 PM46 °FPassing clouds.9 mph76%29.68 "HgN/A
8:20 PM48 °FPassing clouds.12 mph71%29.71 "HgN/A
7:50 PM48 °FPassing clouds.12 mph71%29.71 "HgN/A
7:20 PM48 °FPassing clouds.10 mph76%29.74 "HgN/A
6:50 PM48 °FPassing clouds.10 mph76%29.74 "HgN/A
6:20 PM48 °FPassing clouds.10 mph76%29.74 "HgN/A
5:50 PM50 °FPassing clouds.12 mph71%29.77 "HgN/A
5:20 PM50 °FPassing clouds.12 mph71%29.77 "HgN/A
4:50 PM52 °FPassing clouds.10 mph67%29.77 "HgN/A
4:20 PM52 °FPassing clouds.9 mph67%29.80 "HgN/A
3:50 PM52 °FPassing clouds.9 mph62%29.83 "HgN/A
3:20 PM52 °FPassing clouds.10 mph62%29.83 "HgN/A
2:50 PM52 °FPassing clouds.14 mph62%29.86 "HgN/A
2:20 PM52 °FPassing clouds.16 mph67%29.89 "HgN/A
1:50 PM50 °FPassing clouds.15 mph71%29.89 "HgN/A
1:20 PM50 °FPassing clouds.16 mph71%29.92 "HgN/A
12:50 PM48 °FPassing clouds.14 mph76%29.92 "HgN/A
12:20 PM48 °FPassing clouds.15 mph76%29.95 "HgN/A
11:50 AM46 °FScattered clouds.14 mph87%29.95 "HgN/A
11:20 AM45 °FPartly sunny.13 mph87%29.98 "HgN/A
10:50 AM43 °FPartly sunny.10 mph93%29.98 "HgN/A
10:20 AM41 °FPartly sunny.9 mph100%29.98 "HgN/A
Weather by CustomWeather, © 2016

See weather overviewHow to use our weather pages